www.pogodaiklimat.ru

АРХИВ ПОГОДЫ в Омахе

Время (UTC), дата Ветер
(напр.,м/с)
 
Видим.   Явления Облачность Т
(С)
Тd
(С)
f
(%)
Тe
(С)
Тes
(С)
Комфортность

P
(гПа)

Po
(гПа)
Тmin
(С)
Tmax
(С)
R
(мм)
SD
(см)
13:52 10.09 Ю  16 км  гроза со слабым дождем  5/2 м
[верхняя средняя] 
+20.6  +14.4  68  +24  +25  комфорт  1016.9  981.9  +15.0  +25.0     
14:52 10.09 Ю  16 км    5/2 м
[верхняя средняя] 
+22.0  +15.0  64  +25  +28  комфорт  1016.4  981.3  +15.0  +25.0     
15:52 10.09 Ю  16 км    5/2 м
[верхняя] 
+24.0  +15.0  57  +27  +29  жарко  1016.0  980.9  +15.0  +25.0     
16:52 10.09 Ю  6
{9} 
16 км    5/2 м
[верхняя] 
+25.0  +15.0  54  +28  +31  жарко  1015.6  980.6  +15.0  +25.0     
17:52 10.09 Ю  16 км    5/2 м
[верхняя] 
+27.0  +14.0  45  +29  +37  жарко  1015.2  980.3  +25.0  +27.2     
18:52 10.09 Ю  6
{8} 
16 км  гроза  5/2 м
[верхняя] 
+27.0  +14.0  45  +29  +32  жарко  1014.7  980.0  +25.0  +27.2     
19:52 10.09 Ю  16 км  гроза  2/2 м
[верхняя] 
+26.7  +13.9  45  +29  +32  жарко  1014.3  979.3  +25.0  +27.2     
20:52 10.09 Ю  4
{9} 
16 км  гроза  2/2 м
[верхняя] 
+27.0  +14.0  45  +29  +33  жарко  1014.0  979.0  +25.0  +27.2     
21:52 10.09 Ю  16 км    ясно  +27.0  +14.0  45  +29  +30  жарко  1013.8  979.0  +25.0  +27.2     
22:52 10.09 Ю  16 км    ясно  +25.6  +13.3  46  +28  +28  жарко  1013.8  978.6  +25.0  +27.2     
23:52 10.09 Ю  16 км    2/2 м  +24.0  +14.0  54  +26  +27  жарко  1013.8  978.6  +18.3  +25.6     
00:52 11.09 Ю  16 км    ясно  +21.0  +15.0  69  +24  +24  комфорт  1014.6  979.6  +18.3  +25.6     
01:52 11.09 Ю  16 км    ясно  +21.7  +15.6  68  +25  +25  комфорт  1014.9  980.0  +18.3  +25.6     
02:52 11.09 Ю  16 км    ясно  +20.0  +16.0  78  +23  +23  комфорт  1015.4  980.3  +18.3  +25.6     
03:52 11.09 Ю  16 км  дымка  ясно  +20.0  +16.0  78  +22  +22  комфорт  1015.6  980.6  +18.3  +25.6     
04:52 11.09 ЮВ  16 км  дымка  ясно  +18.3  +15.6  84  +18  +18    1015.8  980.9  +18.3  +25.6     
05:52 11.09 ЮВ  16 км  дымка  ясно  +18.0  +15.0  83  +18  +18    1016.0  980.9  +17.2  +18.9     
06:52 11.09 Ю  16 км    ясно  +18.0  +15.0  83  +18  +18    1015.9  980.9  +17.2  +18.9     
07:52 11.09 Ю  16 км    2/0 м
[верхняя] 
+17.8  +15.0  84  +17  +17    1015.8  980.9  +17.2  +18.9     
08:52 11.09 Ю  16 км    2/0 м
[верхняя] 
0.0  0.0  100  -6  -6    1015.7  980.6  +17.2  +18.9     
09:52 11.09 Ю  16 км    2/0 м
[верхняя] 
0.0  0.0  100  -7  -7    1015.5  980.6  +17.2  +18.9     
10:52 11.09 Ю  16 км    2/0 м
[верхняя] 
0.0  0.0  100  -6  -6    1015.8  980.9  +17.2  +18.9     
11:52 11.09 Ю  16 км    2/0 м
[верхняя] 
+17.0  +15.0  88  +16  +16    1016.1  981.3  +16.7  +26.1     
12:52 11.09 Ю  16 км    2/0 м
[верхняя] 
+19.0  +16.0  83  +20  +20    1016.4  981.3  +16.7  +26.1     
13:52 11.09 Ю  16 км    ясно  +21.7  +15.6  68  +25  +25  комфорт  1016.2  981.3  +16.7  +26.1     
14:52 11.09 Ю  8
{11} 
16 км    2/2 м
[верхняя] 
+23.0  +16.0  65  +27  +28  душно  1015.9  980.9  +16.7  +26.1     
15:52 11.09 Ю  9
{11} 
16 км    2/2 м
[верхняя] 
+25.0  +16.0  57  +28  +28  жарко  1015.4  980.6  +16.7  +26.1     
16:52 11.09 Ю  10
{13} 
16 км    2/2 м
[верхняя] 
+26.1  +15.6  52  +29  +29  жарко  1014.9  980.0  +16.7  +26.1     
17:52 11.09 Ю  9
{13} 
16 км    2/0 м
[верхняя] 
+28.0  +16.0  48  +31  +31  душно  1014.3  979.6  +26.1  +28.9     
18:52 11.09 Ю  9
{14} 
16 км    2/0 м
[верхняя] 
+28.0  +16.0  48  +31  +31  душно  1013.8  979.0  +26.1  +28.9     
19:52 11.09 Ю  8
{15} 
16 км    2/0 м
[верхняя] 
+28.3  +15.6  46  +31  +32  душно  1013.3  978.6  +26.1  +28.9     
20:52 11.09 Ю  10
{13} 
16 км    2/0 м
[верхняя] 
+28.0  +16.0  48  +31  +31  душно  1013.2  978.3  +26.1  +28.9     
21:52 11.09 Ю  7
{13} 
16 км    ясно  +28.0  +16.0  48  +31  +32  душно  1012.9  978.3  +26.1  +28.9     
22:52 11.09 Ю  16 км    ясно  +26.7  +15.6  51  +30  +30  душно  1013.0  978.3  +26.1  +28.9     
23:52 11.09 Ю  16 км    2/0 м
[средняя] 
+25.0  +16.0  57  +28  +28  жарко  1013.3  978.3  +20.6  +26.7     
00:52 12.09 Ю  16 км    ясно  +23.0  +16.0  65  +27  +27  душно  1013.6  978.6  +20.6  +26.7     
01:52 12.09 Ю  16 км    ясно  +22.8  +16.1  66  +27  +27  душно  1014.6  979.6  +20.6  +26.7     
02:52 12.09 Ю  16 км    ясно  +22.0  +16.0  69  +26  +26  душно  1015.0  980.3  +20.6  +26.7     
03:52 12.09 Ю  16 км    ясно  +21.0  +16.0  73  +24  +24  комфорт  1015.4  980.6  +20.6  +26.7     
04:52 12.09 Ю  16 км    ясно  +20.6  +15.6  73  +24  +24  комфорт  1015.7  980.9  +20.6  +26.7     
05:52 12.09 Ю  16 км    ясно  0.0  0.0  100  -7  -7    1015.9  980.9  +17.2  +20.6     
06:52 12.09 Ю  16 км    2/0 м
[верхняя] 
0.0  0.0  100  -6  -6    1015.7  980.9  +17.2  +20.6     
07:52 12.09 ЮВ  16 км    2/0 м
[верхняя] 
0.0  0.0  100  -5  -5    1016.1  981.3  +17.2  +20.6     
08:52 12.09 Ю  16 км    ясно  0.0  0.0  100  -6  -6    1016.1  981.3  +17.2  +20.6     
09:52 12.09 Ю  16 км    ясно  0.0  0.0  100  -7  -7    1016.2  981.3  +17.2  +20.6     
10:52 12.09 ЮВ  16 км    5/5 м
[верхняя средняя] 
0.0  0.0  100  -5  -5    1016.5  981.6  +17.2  +20.6     
11:52 12.09 Ю  16 км    5/5 м
[верхняя средняя] 
+18.0  +15.0  83  +18  +18    1017.2  982.2  +17.2  +27.2     
12:52 12.09 Ю  16 км    5/5 м
[верхняя] 
+20.0  +16.0  78  +22  +23  комфорт  1017.3  982.2  +17.2  +27.2     

 

Местоположение метеостанции Eppley Airfield: широта 41.3103 долгота -95.8992 высота над уровнем моря 299 м.

В архиве по умолчанию представлена погода в Омахе за последние 1-2 суток. Обновление информации о фактической погоде в базе происходит ежечасно! Архивные данные за месяц целиком и за предыдущие месяцы Вы можете получить, выбрав интересующий диапазон дат из раскрывающегося списка и нажав кнопку "Ввод!".

Внимание! Архив погоды МЕТАР в базе сайта в настоящее время начинается c 1 января 2013 г. Нет смысла пытаться выбрать более раннюю дату.

Внимание! Время в таблицах - всемирное. Для получения местного времени необходимо прибавить поправку, которая в Омахе равна -6 ч.

Ветер - указаны скорость ветра в м/с и направление, откуда дует ветер: С - северный, СВ - северо-восточный, В - восточный, ЮВ - юго-восточный, Ю - южный, ЮЗ - юго-западный, З - западный, СЗ - северо-западный.
Видимость - горизонтальная дальность видимости в метрах или километрах. При видимости от 1 до 10 км при отсутствии осадков обычно наблюдается дымка, при ухудшении видимости до 1 км и менее - туман. В сухую погоду видимость может ухудшаться дымом, пылью или мглою.
Атмосферные явления - указаны явления, наблюдавшиеся в указанный момент времени.
Облачность - указаны через наклонную черту верхняя и нижняя облачность в баллах и высота нижней границы облаков в метрах. Внимание: облачность, как и прочие метеорологические величины в США измеряются автоматическими метеостанциями. Указанные значения в баллах носят условный характер и показывают процент времени, в течение которого, в среднем, лазерный луч высотомера отражался от облаков обратно.
T - Температура воздуха - температура, измеренная на высоте 2 м над землей.
Td - Температура точки росы - температура, при понижении до которой содержащийся в воздухе водяной пар достигнет насыщения.
f - Относительная влажность воздуха - влажноcть воздуха, измеренная на высоте 2 м над землей.
Te - Эффективная температура - температура, которую ощущает одетый по сезону человек в тени. Характеристика душности погоды. При расчете учитывается влияние влажности воздуха и скорости ветра на теплоощущения человека.
Tes - Эффективная температура на солнце - температура, которую ощущает человек, с поправкой на солнечный нагрев. Характеристика знойности погоды. Зависит от высоты солнца над горизонтом, облачности и скорости ветра. Ночью, в пасмурную погоду, а также при ветре 12 м/с и более поправка равна нулю.
P - Атмосферное давление - приведенное к уровню моря атмосферное давление.
Po - Атмосферное давление - измеренное на уровне метеостанции атмосферное давление.
Tmin - Минимальная температура - минимум температуры воздуха на высоте 2 м над землей.
Tmax - Максимальная температура - максимум температуры воздуха на высоте 2 м над землей.
R - Количество осадков - Количество выпавших осадков за 3 или 6 часов, мм.
SD - Снежный покров - Высота снежного покрова, см.